This demonstration page uses our WeatherBlox Daily Observations layout. Learn more.

Left ArrowRight Arrow

44.89941, -97.11507

Hourly Observations for April 6, 2019

Temp ( °F °C ) Dew Point ( °F °C ) Humidity (%) Winds ( mph kmh ) Pressure ( in mb ) Visibility ( mi km ) Precip ( " mm )
12:02 am 00:02 Cloudy with Mist and Fog 47 8.3 45 7.2 93 93 E 10 17 29.91 1013 4 6 0.00 0.00
12:53 am 00:53 Cloudy with Mist and Fog 46 7.8 44 6.7 93 93 E 12 19 29.88 1012 3 5 0.00 0.00
1:53 am 01:53 Cloudy with Mist and Fog 45 7.2 44 6.7 97 97 E 10 17 29.87 1012 4 6 0.00 0.00
2:53 am 02:53 Cloudy with Mist and Fog 46 7.8 44 6.7 93 93 ESE 7 11 29.86 1011 4 6 0.00 0.00
3:53 am 03:53 Clear with Mist and Fog 45 7.2 43 6.1 93 93 E 5 7 29.86 1011 4 6 0.00 0.00
4:53 am 04:53 Clear with Mist and Fog 44 6.7 43 6.1 96 96 ENE 6 9 29.85 1011 3 5 0.00 0.00
5:25 am 05:25 Clear with Mist and Fog 42 5.6 41 5 96 96 NE 5 7 29.88 1012 2 3 0.00 0.00
5:30 am 05:30 Clear with Mist and Fog 41 5 41 5 100 100 ENE 5 7 29.88 1012 1 1 0.00 0.00
5:53 am 05:53 Clear with Mist and Fog 41 5 40 4.4 96 96 ENE 6 9 29.86 1011 1 1 0.00 0.00
5:55 am 05:55 Clear with Mist and Fog 42 5.6 40 4.4 92 92 ENE 7 11 29.89 1012 2 2 0.00 0.00
5:57 am 05:57 Clear with Mist and Fog 42 5.6 40 4.4 92 92 ENE 7 11 29.89 1012 3 5 0.00 0.00
6:13 am 06:13 Partly Cloudy with Mist and Fog 42 5.6 41 5 96 96 ENE 3 6 29.90 1013 3 5 0.00 0.00
6:17 am 06:17 Mostly Cloudy with Mist and Fog 42 5.6 41 5 96 96 E 5 7 29.90 1013 2 3 0.00 0.00
6:26 am 06:26 Mostly Cloudy with Mist and Fog 42 5.6 41 5 96 96 E 6 9 29.90 1013 1 2 0.00 0.00
6:42 am 06:42 Cloudy with Mist and Fog 41 5 40 4.4 96 96 E 3 6 29.90 1013 1 1 0.00 0.00
6:53 am 06:53 Cloudy with Mist and Fog 41 5 40 4.4 96 96 E 3 6 29.88 1012 1 1 0.00 0.00
7:08 am 07:08 Mostly Cloudy with Fog 39 3.9 39 3.9 100 100 ENE 5 7 29.91 1013 0 0 0.00 0.00
7:53 am 07:53 Mostly Cloudy with Fog 39 3.9 38 3.3 96 96 Calm 29.90 1013 5 8 0.00 0.00
8:03 am 08:03 Mostly Cloudy with Mist and Fog 41 5 40 4.4 96 96 ESE 5 7 29.92 1013 1 2 0.00 0.00
8:29 am 08:29 Partly Cloudy with Mist and Fog 42 5.6 41 5 96 96 E 5 7 29.94 1014 2 3 0.00 0.00
8:41 am 08:41 Partly Cloudy with Mist and Fog 43 6.1 43 6.1 100 100 VRB 3 6 29.94 1014 4 6 0.00 0.00
8:53 am 08:53 Sunny with Mist and Fog 44 6.7 43 6.1 96 96 E 3 6 29.92 1013 6 10 0.00 0.00
9:13 am 09:13 Mostly Sunny 46 7.8 43 6.1 89 89 E 5 7 29.91 1013 9 14 0.00 0.00
9:53 am 09:53 Mostly Sunny 48 8.9 45 7.2 89 89 E 6 9 29.88 1012 7 11 0.00 0.00
10:53 am 10:53 Mostly Sunny 53 11.7 47 8.3 80 80 E 9 15 29.86 1011 10 16 0.00 0.00
11:35 am 11:35 Mostly Cloudy 55 12.8 48 8.9 77 77 ESE 10 17 29.83 1010 10 16 0.00 0.00
11:53 am 11:53 Cloudy 53 11.7 48 8.9 83 83 SE 10 17 29.86 1011 10 16 0.00 0.00
12:14 pm 12:14 Cloudy 52 11.1 48 8.9 86 86 ESE 8 13 29.85 1011 10 16 0.00 0.00
12:53 pm 12:53 Cloudy with Mist and Fog 52 11.1 49 9.4 89 89 SE 7 11 29.87 1012 6 10 0.00 0.00
1:53 pm 13:53 Cloudy 52 11.1 49 9.4 89 89 E 9 15 29.85 1011 7 11 0.00 0.00
2:53 pm 14:53 Cloudy with Mist and Fog 53 11.7 49 9.4 86 86 E 10 17 29.84 1010 6 10 0.00 0.00
3:53 pm 15:53 Cloudy with Mist and Fog 53 11.7 49 9.4 86 86 E 9 15 29.83 1010 6 10 0.00 0.00
4:53 pm 16:53 Cloudy with Mist and Fog 52 11.1 50 10 93 93 ESE 9 15 29.83 1010 3 5 0.00 0.00
5:10 pm 17:10 Cloudy with Mist and Fog 52 11.1 50 10 93 93 E 10 17 29.80 1009 3 4 0.00 0.00
5:36 pm 17:36 Cloudy with Mist and Fog 52 11.1 50 10 93 93 E 9 15 29.80 1009 3 5 0.00 0.03
5:53 pm 17:53 Cloudy with Mist and Fog 52 11.1 50 10 93 93 SE 10 17 29.84 1011 4 6 0.00 0.03
6:20 pm 18:20 Cloudy with Mist and Fog 53 11.7 50 10 89 89 ESE 10 17 29.79 1009 4 6 0.00 0.00
6:53 pm 18:53 Cloudy with Mist and Fog 52 11.1 50 10 93 93 ESE 12 19 29.81 1009 3 5 0.00 0.00
7:14 pm 19:14 Cloudy with Mist and Fog 52 11.1 50 10 93 93 ESE 8 13 29.77 1008 3 4 0.00 0.00
7:41 pm 19:41 Cloudy with Mist and Fog 51 10.6 50 10 96 96 ESE 13 20 29.78 1008 2 2 0.00 0.00
7:53 pm 19:53 Cloudy with Mist and Fog 51 10.6 50 10 96 96 ESE 9 15 29.80 1009 1 2 0.00 0.00
8:06 pm 20:06 Cloudy with Mist and Fog 51 10.6 50 10 96 96 E 7 11 29.78 1008 1 1 0.00 0.00
8:20 pm 20:20 Cloudy with Mist and Fog 50 10 50 10 100 100 ESE 9 15 29.77 1008 1 2 0.00 0.00
8:26 pm 20:26 Cloudy with Mist and Fog 51 10.6 50 10 96 96 ESE 6 9 29.77 1008 2 3 0.00 0.00
8:49 pm 20:49 Cloudy with Mist and Fog 52 11 50 10 94 94 VRB 5 7 29.76 1008 3 5 0.00 0.00
8:53 pm 20:53 Cloudy with Mist and Fog 51 10.6 50 10 96 96 ESE 6 9 29.78 1008 3 5 0.00 0.00
9:14 pm 21:14 Cloudy with Mist and Fog 51 10.6 50 10 96 96 ESE 8 13 29.77 1008 2 3 0.00 0.00
9:26 pm 21:26 Cloudy with Mist and Fog 50 10 50 10 100 100 ESE 8 13 29.77 1008 2 2 0.00 0.00
9:34 pm 21:34 Cloudy with Mist and Fog 50 10 50 10 100 100 ESE 9 15 29.77 1008 1 2 0.00 0.00
9:41 pm 21:41 Cloudy with Mist and Fog 50 10 50 10 100 100 ESE 10 17 29.77 1008 1 1 0.00 0.00
9:53 pm 21:53 Cloudy with Mist and Fog 50 10 50 10 100 100 ESE 14 22 29.77 1008 1 1 0.00 0.00
10:04 pm 22:04 Cloudy with Mist and Fog 50 10 50 10 100 100 SE 16 26 29.76 1008 1 2 0.00 0.00
10:11 pm 22:11 Cloudy with Mist and Fog 50 10 50 10 100 100 SE 14 22 29.76 1008 2 3 0.00 0.00
10:18 pm 22:18 Cloudy with Mist and Fog 50 10 50 10 100 100 ESE 13 20 29.76 1008 3 4 0.00 0.00
10:27 pm 22:27 Cloudy with Mist and Fog 50 10 50 10 100 100 ESE 13 20 29.76 1008 3 5 0.00 0.00
10:45 pm 22:45 Cloudy with Mist and Fog 51 10.6 50 10 96 96 SE 12 19 29.77 1008 5 8 0.00 0.00
10:53 pm 22:53 Cloudy with Mist and Fog 51 10.6 50 10 96 96 SE 9 15 29.78 1009 5 8 0.00 0.00
11:33 pm 23:33 Cloudy with Heavy Rain 51 10.6 50 10 96 96 SE 13 20 29.79 1009 2 3 0.25 6.35
11:44 pm 23:44 Cloudy with Strong Thunderstorms 51 10.6 50 10 96 96 SE 5 7 29.79 1009 2 3 0.42 10.67
11:51 pm 23:51 Cloudy with Thunderstorms 52 11 50 10 94 94 S 7 11 29.77 1008 3 5 0.42 10.67
11:53 pm 23:53 Cloudy with Light Rain 51 10.6 50 10 96 96 S 10 17 29.78 1009 3 5 0.42 10.67
11:59 pm 23:59 Cloudy with Nearby Thunderstorms 51 10.6 49 9.4 92 92 SE 10 17 29.77 1008 4 6 0.01 0.25

Powered by AerisWeather